Waarnemingen

Advertentie
Mijn weer
Albi, Frankrijk (7632): temperatuur & dauwpunt: 15.03.2019 13:00:00 - 21.03.2019 13:00:00 (CET)Albi, Frankrijk (7632): temperatuur 5cm: 15.03.2019 13:00:00 - 21.03.2019 13:00:00 (CET)Albi, Frankrijk (7632): temperatuur -20cm & temperatuur -100cm: 15.03.2019 13:00:00 - 21.03.2019 13:00:00 (CET)Albi, Frankrijk (7632): windsnelheid & windstoten: 15.03.2019 13:00:00 - 21.03.2019 13:00:00 (CET)Albi, Frankrijk (7632): windrichting: 15.03.2019 13:00:00 - 21.03.2019 13:00:00 (CET)Albi, Frankrijk (7632): luchtdruk: 15.03.2019 13:00:00 - 21.03.2019 13:00:00 (CET)Albi, Frankrijk (7632): zicht: 15.03.2019 13:00:00 - 21.03.2019 13:00:00 (CET)Albi, Frankrijk (7632): Zonneschijnduur: 15.03.2019 13:00:00 - 21.03.2019 13:00:00 (CET)Albi, Frankrijk (7632): neerslag: 15.03.2019 13:00:00 - 21.03.2019 13:00:00 (CET)
Datum & Tijd tt [°C] td [°C] tt 5cm [°C] tt -20cm [°C] tt -100cm [°C] ff [km/u] ff [kn] fx [km/u] fx [kn] dd ppp [hPa] vv [km] sd [min] rr [mm]
21.03.2019 13:00:00 14,1 -1,5 18,8 9,5 10,9 6 3 14 7 WZW 1029,7 20 60 0,0
21.03.2019 12:00:00 12,1 0,8 17,9 9,5 10,9 9 5 15 8 W 1030,2 20 60 0,0
21.03.2019 11:00:00 11,0 0,7 15,1 9,6 10,9 3 2 8 4 ZW 1030,4 20 60 0,0
21.03.2019 10:00:00 8,5 -1,3 10,6 9,6 10,9 0 0 8 4 N 1030,9 20 60 0,0
21.03.2019 09:00:00 5,0 -1,5 4,6 9,7 10,9 4 2 8 4 ONO 1031,2 20 60 0,0
21.03.2019 08:00:00 1,7 -1,4 -2,9 9,7 10,9 5 3 10 6 O 1031,4 20 45 0,0
21.03.2019 07:00:00 -1,5 -3,2 -3,6 9,8 10,9 7 4 10 5 O 1031,1 20 0 0,0
21.03.2019 06:00:00 -1,2 -3,1 -3,1 9,8 11,0 7 4 8 5 O 1030,7 20 0 0,0
21.03.2019 05:00:00 -0,4 -2,8 -2,7 9,8 10,9 4 2 8 4 O 1030,4 20 0 0,0
21.03.2019 04:00:00 -0,1 -2,3 -2,9 9,9 11,0 2 1 5 3 O 1030,3 20 0 0,0
21.03.2019 03:00:00 0,6 -2,1 -1,8 9,9 10,9 3 1 7 4 NO 1030,7 20 0 0,0
21.03.2019 02:00:00 0,9 -1,8 -1,5 9,9 10,9 4 2 9 5 O 1030,8 20 0 0,0
21.03.2019 01:00:00 2,3 -0,8 -0,1 9,9 11,0 6 4 9 5 ONO 1031,1 20 0 0,0
21.03.2019 00:00:00 2,6 -1,0 -0,2 9,9 10,9 4 2 8 4 O 1031,2 20 0 0,0
20.03.2019 23:00:00 4,5 -0,7 0,6 9,9 11,0 0 0 11 6 N 1031,1 20 0 0,0
20.03.2019 22:00:00 6,1 -0,9 2,5 9,8 10,9 3 1 10 5 ONO 1030,8 20 0 0,0
20.03.2019 21:00:00 7,7 -0,8 4,3 9,8 11,0 0 0 13 7 N 1030,4 20 0 0,0
20.03.2019 20:00:00 8,4 -0,4 6,9 9,8 10,9 9 5 19 11 WZW 1029,8 20 0 0,0
20.03.2019 19:00:00 11,8 -1,0 10,8 9,7 10,9 13 7 22 12 ZW 1029,3 20 42 0,0
20.03.2019 18:00:00 15,2 -4,7 17,3 9,6 10,9 12 6 23 12 WNW 1028,4 20 60 0,0
20.03.2019 17:00:00 15,6 -4,9 18,8 9,6 10,9 16 8 31 17 W 1028,4 20 60 0,0
20.03.2019 16:00:00 15,0 -4,4 19,5 9,6 10,9 13 7 28 15 WNW 1028,7 20 60 0,0
20.03.2019 15:00:00 14,8 -2,6 18,7 9,6 10,9 9 5 29 15 WNW 1029,4 20 60 0,0
20.03.2019 14:00:00 14,2 -3,2 18,3 9,6 11,0 13 7 27 14 WNW 1029,8 20 60 0,0
20.03.2019 13:00:00 13,0 -3,8 17,7 9,6 10,9 14 7 21 12 WNW 1030,6 20 60 0,0
20.03.2019 12:00:00 11,4 1,3 15,7 9,7 10,9 11 6 17 9 ZW 1031,2 20 60 0,0
20.03.2019 11:00:00 9,3 1,0 14,2 9,8 10,9 6 3 11 6 WZW 1031,9 20 60 0,0
20.03.2019 10:00:00 6,4 0,5 9,8 9,8 10,9 3 2 7 4 W 1032,1 20 60 0,0
20.03.2019 09:00:00 3,3 0,0 3,3 9,9 10,9 0 0 4 2 N 1032,3 20 60 0,0
20.03.2019 08:00:00 -0,3 -1,1 -4,5 10,0 11,0 0 0 4 2 N 1032,2 20 44 0,0
20.03.2019 07:00:00 -1,7 -2,5 -5,2 10,0 11,0 0 0 4 2 N 1031,7 20 0 0,0
20.03.2019 06:00:00 -1,4 -2,4 -4,4 10,1 10,9 0 0 4 2 N 1031,0 20 0 0,0
20.03.2019 05:00:00 -1,3 -2,4 -4,0 10,1 11,0 3 1 5 3 OZO 1031,1 20 0 0,0
20.03.2019 04:00:00 -0,5 -1,6 -3,5 10,2 11,0 0 0 5 3 N 1030,7 20 0 0,0
20.03.2019 03:00:00 0,4 -0,7 -3,1 10,2 11,0 0 0 4 2 N 1030,9 20 0 0,0
20.03.2019 02:00:00 1,0 -0,2 -2,0 10,2 10,9 3 2 8 4 ZZO 1031,1 18 0 0,0
20.03.2019 01:00:00 1,2 -0,4 -1,6 10,2 10,9 2 1 6 3 ZO 1031,0 18 0 0,0
20.03.2019 00:00:00 3,0 0,9 -0,4 10,2 10,9 0 0 5 3 N 1030,8 20 0 0,0
19.03.2019 23:00:00 4,5 2,0 0,9 10,2 10,9 0 0 7 4 N 1030,1 20 0 0,0
19.03.2019 22:00:00 6,7 2,4 4,8 10,3 11,0 4 2 16 9 WZW 1029,5 20 0 0,0
19.03.2019 21:00:00 7,3 3,3 6,0 10,2 10,9 6 3 12 6 ZZW 1028,9 20 0 0,0
19.03.2019 20:00:00 8,3 3,7 7,9 10,2 11,0 9 5 19 11 WZW 1028,4 20 0 0,0
19.03.2019 19:00:00 9,6 3,1 9,3 10,1 11,0 13 7 29 15 W 1027,8 20 2 0,0
19.03.2019 18:00:00 10,9 1,1 10,9 10,1 10,9 7 4 21 11 W 1027,0 20 0 0,0
19.03.2019 17:00:00 11,2 0,9 11,1 10,1 10,9 9 5 24 13 WNW 1026,7 20 9 0,0
19.03.2019 16:00:00 11,3 2,8 11,9 10,0 10,9 10 5 32 17 W 1026,4 20 7 0,0
19.03.2019 15:00:00 10,9 1,1 10,0 10,1 11,0 10 5 22 12 NW 1026,3 20 0 0,0
19.03.2019 14:00:00 10,5 1,0 11,0 10,0 10,9 9 5 27 15 NNW 1026,5 20 11 0,0
19.03.2019 13:00:00 10,3 1,9 11,5 10,0 10,9 15 8 29 16 WNW 1027,1 20 12 0,0
19.03.2019 12:00:00 10,6 2,9 12,2 10,0 10,9 10 5 25 14 WNW 1027,1 20 45 0,0
19.03.2019 11:00:00 8,3 2,9 8,6 10,1 11,0 11 6 25 14 WNW 1027,3 20 14 0,0
19.03.2019 10:00:00 7,3 3,2 6,9 10,1 10,9 9 5 18 10 WNW 1027,2 20 0 0,0
19.03.2019 09:00:00 6,4 4,2 5,9 10,1 10,9 8 5 13 7 W 1027,1 20 0 0,0
19.03.2019 08:00:00 5,8 4,3 5,0 10,1 10,9 6 4 10 6 W 1026,7 20 25 0,0
19.03.2019 07:00:00 5,3 3,9 4,8 10,1 11,0 8 4 14 8 W 1026,0 20 0 0,0
19.03.2019 06:00:00 5,5 3,8 5,0 10,2 10,9 9 5 17 9 W 1025,7 20 0 0,0
19.03.2019 05:00:00 5,4 3,9 4,8 10,2 10,9 5 3 10 6 WZW 1026,0 20 0 0,0
19.03.2019 04:00:00 5,3 3,8 4,7 10,2 10,9 6 3 17 9 W 1025,7 20 0 0,0
19.03.2019 03:00:00 5,5 3,7 4,9 10,2 10,9 9 5 14 8 W 1026,1 20 0 0,2
19.03.2019 02:00:00 5,8 4,3 5,1 10,2 10,9 5 3 9 5 W 1026,5 20 0 0,0
19.03.2019 01:00:00 6,0 3,8 5,1 10,2 10,9 2 1 22 12 WNW 1026,6 20 0 0,8
19.03.2019 00:00:00 6,9 3,3 5,9 10,2 10,9 7 4 23 13 W 1026,8 19 0 0,0
18.03.2019 23:00:00 7,7 3,7 7,3 10,2 10,9 7 4 22 12 W 1026,7 20 0 0,0
18.03.2019 22:00:00 8,2 3,4 7,9 10,2 11,0 14 8 23 12 W 1026,5 20 0 0,0
18.03.2019 21:00:00 8,7 2,9 6,6 10,1 10,9 8 4 39 21 WNW 1025,9 20 0 0,2
18.03.2019 20:00:00 9,3 3,1 7,8 10,1 10,9 28 15 48 26 W 1025,7 20 0 0,0
18.03.2019 19:00:00 10,7 0,1 10,4 10,1 10,9 16 9 31 17 W 1025,0 20 0 0,0
18.03.2019 18:00:00 11,3 1,0 11,3 10,1 10,9 17 9 38 20 W 1024,6 20 15 0,0
18.03.2019 17:00:00 11,7 1,0 12,9 10,0 10,9 21 12 51 27 W 1024,6 20 51 0,0
18.03.2019 16:00:00 12,2 0,6 13,2 10,0 10,9 20 11 49 26 W 1024,6 20 35 0,0
18.03.2019 15:00:00 11,3 0,4 12,0 10,0 10,9 20 11 40 21 W 1025,2 20 27 0,0
18.03.2019 14:00:00 10,6 0,0 9,9 10,0 10,9 19 10 35 19 W 1026,0 20 5 0,0
18.03.2019 13:00:00 10,4 0,7 11,6 10,0 10,9 19 10 37 20 W 1026,6 20 28 0,0
18.03.2019 12:00:00 9,2 0,4 10,9 10,1 10,9 16 9 36 19 NW 1027,3 20 24 0,0
18.03.2019 11:00:00 8,2 1,1 9,5 10,1 10,9 16 8 29 15 WNW 1027,6 20 29 0,0
18.03.2019 10:00:00 6,8 3,2 6,4 10,1 10,9 5 3 21 11 NW 1027,4 20 5 0,0
18.03.2019 09:00:00 5,3 3,1 4,9 10,2 10,9 9 5 17 9 W 1026,9 20 2 0,0
18.03.2019 08:00:00 3,8 2,6 2,6 10,2 10,9 4 2 23 12 ZW 1026,5 20 0 0,0
18.03.2019 07:00:00 3,1 1,8 2,6 10,3 10,9 11 6 16 9 WZW 1026,1 20 0 0,0
18.03.2019 06:00:00 3,4 2,4 1,7 10,3 10,9 9 5 14 8 WZW 1025,8 20 0 0,0
18.03.2019 05:00:00 3,6 2,0 2,7 10,3 10,9 11 6 15 8 ZW 1024,9 20 0 0,0
18.03.2019 04:00:00 3,8 2,0 2,0 10,4 10,9 5 3 11 6 ZZW 1024,6 20 0 0,0
18.03.2019 03:00:00 4,5 2,4 3,2 10,4 10,9 8 5 14 8 WZW 1024,6 20 0 0,0
18.03.2019 02:00:00 4,2 1,4 3,5 10,4 10,9 9 5 16 9 WZW 1024,7 20 0 0,0
18.03.2019 01:00:00 5,0 1,1 3,3 10,4 10,9 8 4 18 10 ZW 1024,9 20 0 0,0
18.03.2019 00:00:00 5,0 0,7 2,3 10,5 10,9 14 7 25 14 ZW 1024,6 20 0 0,0
17.03.2019 23:00:00 5,0 -0,2 3,5 10,5 10,9 9 5 19 10 WZW 1024,7 20 0 0,0
17.03.2019 22:00:00 6,9 0,3 5,7 10,5 10,9 9 5 25 14 W 1023,8 20 0 0,0
17.03.2019 21:00:00 7,2 1,3 6,1 10,5 10,9 11 6 22 12 W 1023,1 20 0 0,0
17.03.2019 20:00:00 8,6 1,0 7,6 10,4 10,8 11 6 33 18 W 1021,9 20 0 0,0
17.03.2019 19:00:00 9,9 1,3 9,1 10,4 10,8 16 9 49 26 WNW 1020,8 20 34 0,0
17.03.2019 18:00:00 11,4 3,2 11,3 10,4 10,8 24 13 41 22 W 1020,0 20 47 0,0
17.03.2019 17:00:00 11,9 4,1 9,9 10,4 10,9 20 11 41 22 W 1019,4 20 42 0,0
17.03.2019 16:00:00 9,7 5,9 8,2 10,4 10,9 12 6 48 26 W 1019,9 20 0 0,2
17.03.2019 15:00:00 10,1 6,8 9,3 10,4 10,8 16 9 42 23 WNW 1019,3 20 0 0,0
17.03.2019 14:00:00 11,5 9,7 10,3 10,4 10,9 15 8 24 13 WZW 1018,1 15 0 0,8
17.03.2019 13:00:00 11,7 8,0 11,6 10,4 10,8 10 5 23 12 ZW 1018,3 20 0 0,0
17.03.2019 12:00:00 11,0 7,7 11,5 10,5 10,9 10 5 18 10 ZZW 1018,9 18 0 0,0
17.03.2019 11:00:00 10,1 7,7 10,3 10,5 10,9 9 5 15 8 ZZW 1019,3 13 0 0,0
17.03.2019 10:00:00 9,1 7,0 8,1 10,5 10,8 5 3 13 7 Z 1019,3 15 0 0,0
17.03.2019 09:00:00 7,5 5,1 7,5 10,6 10,8 4 2 13 7 NW 1019,1 20 0 0,0
17.03.2019 08:00:00 7,2 5,3 6,3 10,6 10,8 2 1 6 4 WZW 1018,7 20 0 0,0
17.03.2019 07:00:00 6,2 5,2 1,1 10,7 10,8 6 4 12 7 ZW 1017,7 20 0 0,0
17.03.2019 06:00:00 3,2 1,7 0,7 10,7 10,8 3 2 10 6 NW 1016,3 20 0 0,0
17.03.2019 05:00:00 3,0 1,5 1,2 10,7 10,8 6 3 25 14 OZO 1014,5 20 0 0,0
17.03.2019 04:00:00 3,8 1,5 1,2 10,8 10,9 4 2 8 4 ONO 1013,4 20 0 0,0
17.03.2019 03:00:00 4,4 1,9 2,1 10,8 10,8 4 2 11 6 ONO 1013,5 20 0 0,0
17.03.2019 02:00:00 5,6 3,4 1,9 10,8 10,8 6 3 10 6 ONO 1013,9 20 0 0,0
17.03.2019 01:00:00 5,4 2,9 2,7 10,8 10,8 4 2 8 5 ONO 1014,5 20 0 0,0
17.03.2019 00:00:00 6,3 4,1 3,7 10,8 10,8 9 5 11 6 ONO 1015,4 20 0 0,0
16.03.2019 23:00:00 6,8 4,8 3,3 10,7 10,8 5 3 5 3 O 1015,9 20 0 0,0
16.03.2019 22:00:00 7,7 5,2 4,4 10,7 10,8 2 1 7 4 ONO 1015,9 20 0 0,0
16.03.2019 21:00:00 9,0 5,4 5,9 10,6 10,8 0 0 9 5 N 1015,7 20 0 0,0
16.03.2019 20:00:00 10,4 6,3 7,1 10,5 10,8 4 2 5 3 ONO 1015,5 20 0 0,0
16.03.2019 19:00:00 15,0 6,3 11,7 10,4 10,8 3 2 6 4 WZW 1015,7 20 36 0,0
16.03.2019 18:00:00 18,9 3,5 21,4 10,4 10,8 3 1 7 4 ZO 1015,7 20 60 0,0
16.03.2019 17:00:00 19,4 4,3 22,4 10,3 10,8 4 2 9 5 WZW 1016,5 20 57 0,0
16.03.2019 16:00:00 19,8 3,5 25,8 10,2 10,8 5 3 11 6 ZZW 1017,2 20 60 0,0
16.03.2019 15:00:00 18,5 3,5 24,6 10,2 10,8 3 1 9 5 N 1018,2 20 60 0,0
16.03.2019 14:00:00 17,7 4,6 24,1 10,2 10,8 2 1 10 5 ZW 1019,6 20 60 0,0
16.03.2019 13:00:00 15,3 5,5 21,5 10,2 10,8 4 2 13 7 N 1020,8 20 60 0,0
16.03.2019 12:00:00 12,9 4,8 19,3 10,2 10,8 7 4 14 8 N 1021,8 20 60 0,0
16.03.2019 11:00:00 12,1 4,3 16,0 10,2 10,8 4 2 14 8 NNO 1022,8 20 60 0,0
16.03.2019 10:00:00 10,8 5,5 11,4 10,2 10,8 5 3 13 7 NNO 1023,8 20 12 0,0
16.03.2019 09:00:00 8,9 7,3 8,7 10,3 10,8 0 0 4 2 N 1024,3 20 0 0,0
16.03.2019 08:00:00 7,8 6,9 7,2 10,3 10,8 2 1 6 4 ONO 1024,6 20 0 0,0
16.03.2019 07:00:00 7,2 6,3 6,9 10,3 10,8 0 0 5 3 N 1024,9 20 0 0,0
16.03.2019 06:00:00 7,0 6,1 6,6 10,3 10,8 0 0 12 6 N 1025,5 20 0 0,0
16.03.2019 05:00:00 6,9 6,2 5,9 10,3 10,8 0 0 5 3 N 1025,6 20 0 0,0
16.03.2019 04:00:00 6,0 5,3 2,7 10,4 10,8 0 0 3 2 N 1025,9 20 0 0,0
16.03.2019 03:00:00 6,7 5,6 5,1 10,3 10,8 0 0 5 3 N 1026,5 20 0 0,0
16.03.2019 02:00:00 7,2 6,1 3,9 10,3 10,8 3 1 10 6 Z 1027,3 19 0 0,0
16.03.2019 01:00:00 6,6 5,4 4,3 10,4 10,8 5 3 12 7 ZW 1027,4 20 0 0,0
16.03.2019 00:00:00 6,5 5,0 4,1 10,3 10,8 6 4 9 5 ZW 1027,9 20 0 0,0
15.03.2019 23:00:00 8,7 6,7 7,5 10,3 10,8 7 4 16 9 W 1028,0 20 0 0,0
15.03.2019 22:00:00 10,0 7,1 9,2 10,3 10,8 14 7 25 13 WZW 1027,9 20 0 0,0
15.03.2019 21:00:00 11,1 7,4 11,0 10,2 10,8 15 8 36 19 W 1027,7 20 0 0,0
15.03.2019 20:00:00 11,8 7,5 11,5 10,2 10,8 20 11 37 20 W 1027,4 20 0 0,0
15.03.2019 19:00:00 11,8 8,3 11,7 10,2 10,8 10 6 30 16 WZW 1027,1 20 0 0,0
15.03.2019 18:00:00 12,6 7,5 12,5 10,1 10,8 19 10 31 17 W 1026,5 20 0 0,0
15.03.2019 17:00:00 12,7 8,2 12,8 10,1 10,8 18 10 38 20 WZW 1026,1 20 1 0,0
15.03.2019 16:00:00 13,7 8,3 14,8 10,1 10,8 26 14 39 21 WZW 1026,3 20 1 0,0
15.03.2019 15:00:00 13,7 8,3 13,9 10,1 10,8 18 10 39 21 W 1026,1 20 5 0,0
15.03.2019 14:00:00 13,4 8,9 13,7 10,0 10,8 18 10 47 26 W 1026,3 20 5 0,0
15.03.2019 13:00:00 12,8 9,2 12,9 10,0 10,8 24 13 46 25 W 1026,9 20 7 0,0

tt = temperatuur
td = dauwpunt
tt 5cm = temperatuur 5cm
tt -20cm = temperatuur -20cm
tt -100cm = temperatuur -100cm
ff = windsnelheid
fx = windstoten
dd = windrichting
ppp = luchtdruk
vv = zicht
sd = Zonneschijnduur
rr = neerslag

Weerstations in de omgeving